Regional Weather Roundup
Issued by NWS

Home | Current Version | Previous Version | Graphics & Text | Print | Product List | Glossary On
Versions: 1 2 3 4 5 6 7 8 9 10 11 12 13 14 15 16 17 18 19 20 21 22 23 24 25 26 27 28 29 30 31 32 33 34 35 36 37 38 39 40 41 42 43 44 45 46 47 48 49 50
000
ASUS43 KFSD 220902
RWRSD

WEATHER ROUNDUP FOR SOUTH DAKOTA
NATIONAL WEATHER SERVICE SIOUX FALLS SD
400 AM CDT MON MAY 22 2017

NOTE: "FAIR" INDICATES FEW OR NO CLOUDS BELOW 12,000 FEET WITH NO
SIGNIFICANT WEATHER AND/OR OBSTRUCTIONS TO VISIBILITY.


SDZ001>005-009-010-012>017-221000-
NORTHWEST AND NORTH CENTRAL SOUTH DAKOTA

CITY           SKY/WX    TMP DP  RH WIND       PRES   REMARKS
BUFFALO          N/A     48  45  89 NW20      29.98R
FAITH            N/A     49  42  77 W16       29.97S
MOBRIDGE       CLEAR     44  39  82 S6        29.87F
$$

SDZ012>016-024>037-041>051-057-063-072>074-221000-
SOUTHWEST AND SOUTH CENTRAL SOUTH DAKOTA

CITY           SKY/WX    TMP DP  RH WIND       PRES   REMARKS
RAPID CTY ARPT PTCLDY    42  36  79 W7        30.03F
PIERRE         CLEAR     46  42  86 W12       29.94F
CUSTER         CLEAR     39  32  76 W6        30.10F
ELLSWORTH AFB  PTCLDY    45  40  83 NW8       30.03S
PHILIP         CLEAR     39  38  96 W8        29.99F
PINE RIDGE     CLEAR     43  41  93 NW5       30.08F
SPEARFISH      FAIR      48  37  66 SW14G22   30.03F
WINNER         FAIR      49  43  80 W12       29.98F
$$

SDZ004>011-016>023-039-040-221000-
NORTHEAST SOUTH DAKOTA

CITY           SKY/WX    TMP DP  RH WIND       PRES   REMARKS
ABERDEEN       FOG       35  33  92 SE3       29.89F VSB 1
WATERTOWN      CLEAR     39  37  92 CALM      29.88S
BROOKINGS      PTCLDY    45  42  89 S3        29.89F
SISSETON         N/A     42  39  89 CALM      29.87F
$$

SDZ017-020-022-023-036>040-048>070-221000-
SOUTHEAST SOUTH DAKOTA

CITY           SKY/WX    TMP DP  RH WIND       PRES   REMARKS
SIOUX FALLS    CLOUDY    52  45  77 W6        29.91F
HURON          PTCLDY    43  41  93 W6        29.91F
MITCHELL       CLOUDY    50  45  83 W9        29.92F
YANKTON        CLOUDY    57  45  64 S10       29.94F
$$

ABBREVIATIONS USED IN REMARKS
   TC - TEMPERATURE IN CELSIUS
  WCI - WIND CHILL INDEX
   HX - HEAT INDEX
  VSB - VISIBILITY





USA.gov is the U.S. government's official web portal to all federal, state and local government web resources and services.